Location: Berville
(49.1893°N, 2.0748°E)
Time: 06:43:07
(UTC+00:00)

Cosmos 2237 Rocket - Pass Details

Date: 08 February 2023
Orbit: 834 x 849 km, 71.0° (Epoch: 21 March)

Event Time Altitude Azimuth Distance (km) Brightness Sun altitude
Rises 18:40:08 0° 172° (S) 3,395 5.3 -16.8°
Reaches altitude 10° 18:42:53 10° 161° (SSE) 2,467 4.5 -17.2°
Enters shadow 18:47:18 28° 110° (ESE) 1,545 3.0 -17.9°
